When you browse on this site, cookies collect data to enhance your experience and personalize the content and advertising you see.
Visit our Privacy Policy to learn more. By continuing to use the site, you agree to this use of cookies and data.
  • In United Kingdom
  • List of Countries
  • For 7 days
  • Water Temperature
  • Weather Map
  • Weather Widgets
  • user-avatar
    Login

    Hourly Weather Birmingham

    Today, 14 November, Thursday

    Time Temperature Precipitation Wind Pressure Humidity
    00:00 +3°C° 0 mm 7 mps 729 mmHg 87%
    01:00 +3°C° 1.4 mm 6 mps 730 mmHg 88%
    02:00 +3°C° 1.4 mm 6 mps 730 mmHg 89%
    03:00 +3°C° 1.4 mm 5 mps 730 mmHg 90%
    04:00 +3°C° 1.3 mm 6 mps 730 mmHg 89%
    05:00 +3°C° 1.3 mm 7 mps 731 mmHg 89%
    06:00 +2°C° 1.3 mm 8 mps 731 mmHg 88%
    07:00 +2°C° 0.9 mm 8 mps 732 mmHg 88%
    08:00 +2°C° 0.9 mm 9 mps 732 mmHg 88%
    09:00 +2°C° 0.9 mm 9 mps 733 mmHg 88%
    10:00 +2°C° 1.5 mm 9 mps 733 mmHg 89%
    11:00 +2°C° 1.5 mm 9 mps 734 mmHg 91%
    12:00 +2°C° 1.5 mm 8 mps 734 mmHg 92%
    13:00 +2°C° 2.4 mm 8 mps 735 mmHg 92%
    14:00 +2°C° 2.4 mm 8 mps 736 mmHg 93%
    15:00 +2°C° 2.4 mm 7 mps 736 mmHg 93%
    16:00 +2°C° 1.4 mm 7 mps 737 mmHg 93%
    17:00 +2°C° 1.4 mm 6 mps 738 mmHg 93%
    18:00 +2°C° 1.4 mm 6 mps 738 mmHg 93%
    19:00 +2°C° 0.4 mm 5 mps 739 mmHg 92%
    20:00 +3°C° 0.4 mm 4 mps 739 mmHg 92%
    21:00 +3°C° 0.4 mm 4 mps 740 mmHg 92%
    22:00 +3°C° 0 mm 4 mps 740 mmHg 92%
    23:00 +2°C° 0 mm 3 mps 741 mmHg 92%

    Tomorrow, 15 November, Friday

    Time Temperature Precipitation Wind Pressure Humidity
    00:00 +2°C° 0 mm 3 mps 741 mmHg 93%
    01:00 +2°C° 0 mm 3 mps 741 mmHg 93%
    02:00 +2°C° 0 mm 3 mps 741 mmHg 93%
    03:00 +2°C° 0 mm 3 mps 741 mmHg 93%
    04:00 +2°C° 0 mm 3 mps 742 mmHg 94%
    05:00 +2°C° 0 mm 3 mps 742 mmHg 94%
    06:00 +1°C° 0 mm 4 mps 742 mmHg 94%
    07:00 +3°C° 0 mm 4 mps 743 mmHg 92%
    08:00 +4°C° 0 mm 4 mps 743 mmHg 91%
    09:00 +5°C° 0 mm 5 mps 743 mmHg 89%
    10:00 +5°C° 0 mm 5 mps 743 mmHg 86%
    11:00 +5°C° 0 mm 6 mps 743 mmHg 83%
    12:00 +6°C° 0 mm 7 mps 743 mmHg 80%
    13:00 +7°C° 0 mm 6 mps 743 mmHg 79%
    14:00 +5°C° 0 mm 6 mps 743 mmHg 78%
    15:00 +5°C° 0 mm 6 mps 742 mmHg 77%
    16:00 +5°C° 0 mm 6 mps 742 mmHg 78%
    17:00 +5°C° 0 mm 6 mps 743 mmHg 80%
    18:00 +4°C° 0 mm 6 mps 743 mmHg 81%
    19:00 +4°C° 0 mm 7 mps 743 mmHg 81%
    20:00 +4°C° 0 mm 7 mps 743 mmHg 81%
    21:00 +4°C° 0 mm 7 mps 743 mmHg 80%
    22:00 +4°C° 0.1 mm 7 mps 743 mmHg 82%
    23:00 +4°C° 0.1 mm 7 mps 743 mmHg 83%

    Day after tomorrow, 16 November, Saturday

    Time Temperature Precipitation Wind Pressure Humidity
    00:00 +4°C° 0.1 mm 7 mps 743 mmHg 85%
    01:00 +4°C° 0.1 mm 6 mps 743 mmHg 86%
    02:00 +4°C° 0.1 mm 6 mps 743 mmHg 87%
    03:00 +4°C° 0.1 mm 6 mps 743 mmHg 88%
    04:00 +5°C° 0 mm 5 mps 743 mmHg 88%
    05:00 +5°C° 0 mm 5 mps 743 mmHg 88%
    06:00 +5°C° 0 mm 5 mps 743 mmHg 88%
    07:00 +5°C° 0 mm 4 mps 743 mmHg 88%
    08:00 +5°C° 0 mm 4 mps 743 mmHg 89%
    09:00 +5°C° 0 mm 4 mps 744 mmHg 89%
    10:00 +6°C° 0 mm 4 mps 744 mmHg 88%
    11:00 +7°C° 0 mm 3 mps 744 mmHg 87%
    12:00 +7°C° 0 mm 3 mps 744 mmHg 86%
    13:00 +7°C° 0 mm 3 mps 744 mmHg 87%
    14:00 +7°C° 0 mm 2 mps 744 mmHg 87%
    15:00 +7°C° 0 mm 2 mps 744 mmHg 87%
    16:00 +7°C° 0 mm 2 mps 744 mmHg 88%
    17:00 +6°C° 0 mm 2 mps 744 mmHg 89%
    18:00 +7°C° 0 mm 1 mps 744 mmHg 91%
    19:00 +6°C° 0 mm 1 mps 744 mmHg 90%
    20:00 +6°C° 0 mm 1 mps 745 mmHg 90%
    21:00 +6°C° 0 mm 1 mps 745 mmHg 90%
    22:00 +6°C° 0 mm 1 mps 745 mmHg 90%
    23:00 +5°C° 0 mm 0 mps 745 mmHg 89%

    17 November, Sunday

    Time Temperature Precipitation Wind Pressure Humidity
    00:00 +5°C° 0 mm 0 mps 745 mmHg 89%
    01:00 +5°C° 0 mm 0 mps 745 mmHg 89%
    02:00 +5°C° 0 mm 0 mps 745 mmHg 90%
    03:00 +5°C° 0 mm 0 mps 745 mmHg 90%
    04:00 +5°C° 0 mm 0 mps 745 mmHg 90%
    05:00 +5°C° 0 mm 0 mps 746 mmHg 90%
    06:00 +5°C° 0 mm 0 mps 746 mmHg 90%
    07:00 +5°C° 0 mm 0 mps 746 mmHg 90%
    08:00 +5°C° 0 mm 0 mps 746 mmHg 89%
    09:00 +5°C° 0 mm 0 mps 746 mmHg 89%
    10:00 +6°C° 0.1 mm 0 mps 746 mmHg 88%
    11:00 +7°C° 0.1 mm 1 mps 746 mmHg 87%
    12:00 +7°C° 0.1 mm 1 mps 747 mmHg 87%
    13:00 +7°C° 0 mm 1 mps 746 mmHg 87%
    14:00 +7°C° 0 mm 1 mps 746 mmHg 87%
    15:00 +7°C° 0 mm 1 mps 746 mmHg 87%
    16:00 +7°C° 0 mm 1 mps 746 mmHg 88%
    17:00 +6°C° 0 mm 1 mps 747 mmHg 90%
    18:00 +6°C° 0 mm 1 mps 747 mmHg 91%
    19:00 +5°C° 0.3 mm 2 mps 747 mmHg 92%
    20:00 +5°C° 0.3 mm 2 mps 747 mmHg 92%
    21:00 +5°C° 0.3 mm 2 mps 748 mmHg 93%
    22:00 +5°C° 0.1 mm 2 mps 747 mmHg 92%
    23:00 +5°C° 0.1 mm 2 mps 747 mmHg 92%

    18 November, Monday

    Time Temperature Precipitation Wind Pressure Humidity
    00:00 +4°C° 0.1 mm 3 mps 747 mmHg 92%
    01:00 +4°C° 0 mm 3 mps 747 mmHg 91%
    02:00 +4°C° 0 mm 3 mps 747 mmHg 89%
    03:00 +3°C° 0 mm 3 mps 747 mmHg 88%
    04:00 +3°C° 0 mm 3 mps 747 mmHg 88%
    05:00 +3°C° 0 mm 3 mps 747 mmHg 88%
    06:00 +3°C° 0 mm 3 mps 747 mmHg 88%
    07:00 +3°C° 0 mm 3 mps 746 mmHg 88%
    08:00 +3°C° 0 mm 4 mps 746 mmHg 87%
    09:00 +3°C° 0 mm 4 mps 746 mmHg 87%
    10:00 +3°C° 0 mm 4 mps 746 mmHg 86%
    11:00 +3°C° 0 mm 4 mps 746 mmHg 86%
    12:00 +3°C° 0 mm 5 mps 746 mmHg 85%
    13:00 +4°C° 0 mm 4 mps 745 mmHg 84%
    14:00 +4°C° 0 mm 4 mps 745 mmHg 83%
    15:00 +3°C° 0 mm 4 mps 745 mmHg 83%
    16:00 +3°C° 0.1 mm 3 mps 745 mmHg 84%
    17:00 +3°C° 0.1 mm 3 mps 744 mmHg 86%
    18:00 +3°C° 0.1 mm 2 mps 744 mmHg 87%
    19:00 +3°C° 0 mm 2 mps 744 mmHg 89%
    20:00 +2°C° 0 mm 2 mps 744 mmHg 90%
    21:00 +1°C° 0 mm 2 mps 744 mmHg 91%
    22:00 +1°C° 0 mm 2 mps 744 mmHg 91%
    23:00 +1°C° 0 mm 2 mps 744 mmHg 91%

    19 November, Tuesday

    Time Temperature Precipitation Wind Pressure Humidity
    00:00 -1°C° 0 mm 2 mps 743 mmHg 91%
    01:00 +1°C° 0 mm 1 mps 743 mmHg 91%
    02:00 +1°C° 0 mm 1 mps 743 mmHg 90%
    03:00 +1°C° 0 mm 1 mps 742 mmHg 90%
    04:00 +1°C° 0 mm 1 mps 742 mmHg 89%
    05:00 +1°C° 0 mm 1 mps 742 mmHg 89%
    06:00 +1°C° 0 mm 1 mps 741 mmHg 88%
    07:00 -1°C° 0 mm 2 mps 741 mmHg 88%
    08:00 +1°C° 0 mm 2 mps 741 mmHg 87%
    09:00 0°C° 0 mm 3 mps 741 mmHg 86%
    10:00 +1°C° 0 mm 3 mps 740 mmHg 86%
    11:00 +1°C° 0 mm 4 mps 739 mmHg 86%
    12:00 +3°C° 0 mm 4 mps 739 mmHg 86%
    13:00 +3°C° 0.1 mm 5 mps 738 mmHg 86%
    14:00 +3°C° 0.1 mm 5 mps 737 mmHg 86%
    15:00 +5°C° 0.1 mm 5 mps 737 mmHg 86%
    16:00 +5°C° 0.4 mm 5 mps 737 mmHg 88%
    17:00 +5°C° 0.4 mm 4 mps 736 mmHg 91%
    18:00 +5°C° 0.4 mm 4 mps 736 mmHg 94%
    19:00 +4°C° 0 mm 3 mps 736 mmHg 93%
    20:00 +4°C° 0 mm 2 mps 736 mmHg 92%
    21:00 +3°C° 0 mm 2 mps 736 mmHg 91%
    22:00 +3°C° 0 mm 2 mps 736 mmHg 91%
    23:00 +3°C° 0 mm 2 mps 736 mmHg 91%
    Show more